START_TIME,STEP,MOV.,P1,t_acc.,E44,t_acc.,A3,t_acc.,P10,t_acc.
1979-07-17 09:00:23.240 ,0,0,8.,1.2,752.,1.2,1.,1.2,0.,1.2
1979-07-17 09:00:24.440 ,0,0,12.,1.2,784.,1.2,0.,1.2,1.,1.2
1979-07-17 09:00:25.640 ,0,0,5.,1.2,736.,1.2,0.,1.2,0.,1.2
1979-07-17 09:00:26.840 ,0,0,8.,1.2,720.,1.2,0.,1.2,0.,1.2
1979-07-17 09:00:28.040 ,0,0,7.,1.2,784.,1.2,0.,1.2,0.,1.2
1979-07-17 09:00:29.240 ,0,0,11.,1.2,784.,1.2,0.,1.2,0.,1.2
1979-07-17 09:00:30.440 ,0,0,6.,1.2,752.,1.2,0.,1.2,0.,1.2
1979-07-17 09:00:31.640 ,0,0,9.,1.2,752.,1.2,0.,1.2,0.,1.2
1979-07-17 09:00:32.840 ,0,0,9.,1.2,736.,1.2,0.,1.2,0.,1.2
1979-07-17 09:00:34.040 ,0,0,5.,1.2,672.,1.2,0.,1.2,0.,1.2
1979-07-17 09:00:35.240 ,0,0,13.,1.2,720.,1.2,0.,1.2,1.,1.2
1979-07-17 09:00:36.440 ,0,0,10.,1.2,736.,1.2,0.,1.2,0.,1.2
1979-07-17 09:00:37.640 ,0,0,14.,1.2,752.,1.2,0.,1.2,0.,1.2
1979-07-17 09:00:38.840 ,0,0,9.,1.2,736.,1.2,0.,1.2,0.,1.2
1979-07-17 09:00:40.040 ,0,0,13.,1.2,816.,1.2,0.,1.2,0.,1.2
1979-07-17 09:00:41.240 ,0,0,11.,1.2,816.,1.2,0.,1.2,0.,1.2
1979-07-17 09:00:42.440 ,0,0,15.,1.2,800.,1.2,0.,1.2,0.,1.2
1979-07-17 09:00:43.640 ,0,0,6.,1.2,752.,1.2,1.,1.2,0.,1.2
1979-07-17 09:00:44.840 ,0,0,6.,1.2,832.,1.2,0.,1.2,0.,1.2
1979-07-17 09:00:46.040 ,0,0,14.,1.2,816.,1.2,0.,1.2,0.,1.2
1979-07-17 09:00:47.240 ,0,0,13.,1.2,736.,1.2,0.,1.2,0.,1.2
1979-07-17 09:00:48.440 ,0,0,10.,1.2,800.,1.2,1.,1.2,1.,1.2
1979-07-17 09:00:49.640 ,0,0,12.,1.2,800.,1.2,0.,1.2,0.,1.2
1979-07-17 09:00:50.840 ,0,0,10.,1.2,784.,1.2,0.,1.2,0.,1.2
1979-07-17 09:00:52.040 ,0,0,10.,1.2,816.,1.2,0.,1.2,0.,1.2
1979-07-17 09:00:53.240 ,0,0,6.,1.2,864.,1.2,1.,1.2,3.,1.2
1979-07-17 09:00:54.440 ,0,0,11.,1.2,816.,1.2,1.,1.2,0.,1.2
1979-07-17 09:00:55.640 ,0,0,11.,1.2,784.,1.2,0.,1.2,0.,1.2
1979-07-17 09:00:56.840 ,0,0,5.,1.2,816.,1.2,0.,1.2,0.,1.2
1979-07-17 09:00:58.040 ,0,0,10.,1.2,800.,1.2,0.,1.2,0.,1.2
1979-07-17 09:00:59.240 ,0,0,5.,1.2,800.,1.2,1.,1.2,0.,1.2
1979-07-17 09:01:00.440 ,0,0,7.,1.2,832.,1.2,0.,1.2,0.,1.2
1979-07-17 09:01:01.640 ,0,0,13.,1.2,784.,1.2,1.,1.2,0.,1.2
1979-07-17 09:01:02.840 ,0,0,11.,1.2,912.,1.2,0.,1.2,0.,1.2
1979-07-17 09:01:04.040 ,0,0,8.,1.2,752.,1.2,0.,1.2,0.,1.2
1979-07-17 09:01:05.240 ,0,0,11.,1.2,816.,1.2,0.,1.2,0.,1.2
1979-07-17 09:01:06.440 ,0,0,10.,1.2,832.,1.2,0.,1.2,0.,1.2
1979-07-17 09:01:07.640 ,0,0,10.,1.2,800.,1.2,0.,1.2,0.,1.2
1979-07-17 09:01:08.840 ,0,0,13.,1.2,784.,1.2,0.,1.2,0.,1.2
1979-07-17 09:01:10.040 ,0,0,12.,1.2,816.,1.2,2.,1.2,0.,1.2
1979-07-17 09:01:11.240 ,0,0,10.,1.2,816.,1.2,0.,1.2,0.,1.2
1979-07-17 09:01:12.440 ,0,0,11.,1.2,848.,1.2,0.,1.2,0.,1.2
1979-07-17 09:01:13.640 ,0,0,7.,1.2,864.,1.2,0.,1.2,0.,1.2
1979-07-17 09:01:14.840 ,0,0,10.,1.2,848.,1.2,0.,1.2,0.,1.2
1979-07-17 09:01:16.040 ,0,0,12.,1.2,832.,1.2,0.,1.2,0.,1.2
1979-07-17 09:01:17.240 ,0,0,10.,1.2,880.,1.2,0.,1.2,0.,1.2
1979-07-17 09:01:18.440 ,0,0,11.,1.2,848.,1.2,0.,1.2,0.,1.2
1979-07-17 09:01:19.640 ,0,0,7.,1.2,880.,1.2,0.,1.2,0.,1.2
1979-07-17 09:01:20.840 ,0,0,8.,1.2,848.,1.2,1.,1.2,1.,1.2
1979-07-17 09:01:22.040 ,0,0,9.,1.2,832.,1.2,0.,1.2,0.,1.2
1979-07-17 09:01:23.240 ,0,0,12.,1.2,848.,1.2,0.,1.2,0.,1.2
1979-07-17 09:01:24.440 ,0,0,6.,1.2,880.,1.2,0.,1.2,2.,1.2
1979-07-17 09:01:25.640 ,0,0,6.,1.2,880.,1.2,0.,1.2,0.,1.2
1979-07-17 09:01:26.840 ,0,0,9.,1.2,896.,1.2,0.,1.2,0.,1.2
1979-07-17 09:01:28.040 ,0,0,15.,1.2,880.,1.2,0.,1.2,0.,1.2
1979-07-17 09:01:29.240 ,0,0,6.,1.2,864.,1.2,1.,1.2,0.,1.2
1979-07-17 09:01:30.440 ,0,0,16.,1.2,864.,1.2,0.,1.2,0.,1.2
1979-07-17 09:01:31.640 ,0,0,11.,1.2,864.,1.2,0.,1.2,0.,1.2
1979-07-17 09:01:32.840 ,0,0,11.,1.2,848.,1.2,0.,1.2,0.,1.2
1979-07-17 09:01:34.040 ,0,0,8.,1.2,896.,1.2,0.,1.2,0.,1.2
1979-07-17 09:01:35.240 ,1,0,14.,1.2,864.,1.2,0.,1.2,0.,1.2
1979-07-17 09:01:36.440 ,1,0,7.,1.2,816.,1.2,1.,1.2,0.,1.2
1979-07-17 09:01:37.640 ,1,0,10.,1.2,848.,1.2,1.,1.2,0.,1.2
1979-07-17 09:01:38.840 ,1,0,13.,1.2,896.,1.2,1.,1.2,0.,1.2
1979-07-17 09:01:40.040 ,1,0,11.,1.2,928.,1.2,1.,1.2,0.,1.2
1979-07-17 09:01:41.240 ,1,0,5.,1.2,1312.,1.2,0.,1.2,0.,1.2
1979-07-17 09:01:42.440 ,1,0,15.,1.2,880.,1.2,0.,1.2,0.,1.2
1979-07-17 09:01:43.640 ,1,0,10.,1.2,864.,1.2,0.,1.2,0.,1.2
1979-07-17 09:01:44.840 ,1,0,14.,1.2,848.,1.2,0.,1.2,0.,1.2
1979-07-17 09:01:46.040 ,1,0,9.,1.2,848.,1.2,0.,1.2,0.,1.2
1979-07-17 09:01:47.240 ,1,0,9.,1.2,832.,1.2,1.,1.2,0.,1.2
1979-07-17 09:01:48.440 ,1,0,11.,1.2,848.,1.2,0.,1.2,0.,1.2
1979-07-17 09:01:49.640 ,1,0,8.,1.2,864.,1.2,0.,1.2,0.,1.2
1979-07-17 09:01:50.840 ,1,0,14.,1.2,896.,1.2,0.,1.2,0.,1.2
1979-07-17 09:01:52.040 ,1,0,9.,1.2,832.,1.2,0.,1.2,0.,1.2
1979-07-17 09:01:53.240 ,1,0,11.,1.2,848.,1.2,0.,1.2,0.,1.2
1979-07-17 09:01:54.440 ,1,0,12.,1.2,864.,1.2,0.,1.2,0.,1.2
1979-07-17 09:01:55.640 ,1,0,8.,1.2,800.,1.2,0.,1.2,0.,1.2
1979-07-17 09:01:56.840 ,1,0,7.,1.2,832.,1.2,0.,1.2,0.,1.2
1979-07-17 09:01:58.040 ,1,0,15.,1.2,880.,1.2,1.,1.2,0.,1.2
1979-07-17 09:01:59.240 ,1,0,15.,1.2,816.,1.2,0.,1.2,0.,1.2
1979-07-17 09:02:00.440 ,1,0,5.,1.2,848.,1.2,0.,1.2,0.,1.2
1979-07-17 09:02:01.640 ,1,0,13.,1.2,816.,1.2,0.,1.2,0.,1.2
1979-07-17 09:02:02.840 ,1,0,14.,1.2,848.,1.2,0.,1.2,0.,1.2
1979-07-17 09:02:04.040 ,1,0,13.,1.2,848.,1.2,1.,1.2,0.,1.2
1979-07-17 09:02:05.240 ,1,0,12.,1.2,848.,1.2,0.,1.2,0.,1.2
1979-07-17 09:02:06.440 ,1,0,10.,1.2,848.,1.2,1.,1.2,0.,1.2
1979-07-17 09:02:07.640 ,1,0,13.,1.2,864.,1.2,0.,1.2,0.,1.2
1979-07-17 09:02:08.840 ,1,0,17.,1.2,864.,1.2,1.,1.2,1.,1.2
1979-07-17 09:02:10.040 ,1,0,10.,1.2,832.,1.2,0.,1.2,0.,1.2
1979-07-17 09:02:11.240 ,1,0,15.,1.2,848.,1.2,0.,1.2,0.,1.2
1979-07-17 09:02:12.440 ,1,0,12.,1.2,848.,1.2,0.,1.2,0.,1.2
1979-07-17 09:02:13.640 ,1,0,13.,1.2,864.,1.2,0.,1.2,0.,1.2
1979-07-17 09:02:14.840 ,1,0,10.,1.2,848.,1.2,0.,1.2,0.,1.2
1979-07-17 09:02:16.040 ,1,0,14.,1.2,864.,1.2,1.,1.2,0.,1.2
1979-07-17 09:02:17.240 ,1,0,17.,1.2,864.,1.2,0.,1.2,0.,1.2
1979-07-17 09:02:18.440 ,1,0,16.,1.2,832.,1.2,0.,1.2,0.,1.2
1979-07-17 09:02:19.640 ,1,0,9.,1.2,864.,1.2,0.,1.2,0.,1.2
1979-07-17 09:02:20.840 ,1,0,8.,1.2,848.,1.2,1.,1.2,0.,1.2
1979-07-17 09:02:22.040 ,1,0,17.,1.2,816.,1.2,0.,1.2,0.,1.2
1979-07-17 09:02:23.240 ,2,0,8.,1.2,816.,1.2,0.,1.2,1.,1.2
1979-07-17 09:02:24.440 ,2,0,14.,1.2,816.,1.2,0.,1.2,0.,1.2
1979-07-17 09:02:25.640 ,2,0,15.,1.2,784.,1.2,0.,1.2,0.,1.2
1979-07-17 09:02:26.840 ,2,0,2.,1.2,864.,1.2,0.,1.2,0.,1.2
1979-07-17 09:02:28.040 ,2,0,10.,1.2,832.,1.2,0.,1.2,0.,1.2
1979-07-17 09:02:29.240 ,2,0,12.,1.2,1216.,1.2,0.,1.2,0.,1.2
1979-07-17 09:02:30.440 ,2,0,15.,1.2,704.,1.2,1.,1.2,0.,1.2
1979-07-17 09:02:31.640 ,2,0,19.,1.2,640.,1.2,0.,1.2,0.,1.2
1979-07-17 09:02:32.840 ,2,0,18.,1.2,656.,1.2,1.,1.2,0.,1.2
1979-07-17 09:02:34.040 ,2,0,19.,1.2,656.,1.2,0.,1.2,0.,1.2
1979-07-17 09:02:35.240 ,2,0,22.,1.2,672.,1.2,0.,1.2,0.,1.2
1979-07-17 09:02:36.440 ,2,0,11.,1.2,720.,1.2,0.,1.2,0.,1.2
1979-07-17 09:02:37.640 ,2,0,20.,1.2,704.,1.2,0.,1.2,0.,1.2
1979-07-17 09:02:38.840 ,2,0,19.,1.2,688.,1.2,0.,1.2,0.,1.2
1979-07-17 09:02:40.040 ,2,0,16.,1.2,656.,1.2,0.,1.2,0.,1.2
1979-07-17 09:02:41.240 ,2,0,17.,1.2,704.,1.2,0.,1.2,0.,1.2
1979-07-17 09:02:42.440 ,2,0,15.,1.2,720.,1.2,0.,1.2,0.,1.2
1979-07-17 09:02:43.640 ,2,0,14.,1.2,688.,1.2,0.,1.2,0.,1.2
1979-07-17 09:02:44.840 ,2,0,13.,1.2,704.,1.2,0.,1.2,0.,1.2
1979-07-17 09:02:46.040 ,2,0,21.,1.2,688.,1.2,0.,1.2,0.,1.2
1979-07-17 09:02:47.240 ,2,0,18.,1.2,720.,1.2,1.,1.2,0.,1.2
1979-07-17 09:02:48.440 ,2,0,9.,1.2,768.,1.2,0.,1.2,0.,1.2
1979-07-17 09:02:49.640 ,2,0,23.,1.2,672.,1.2,0.,1.2,0.,1.2
1979-07-17 09:02:50.840 ,2,0,18.,1.2,688.,1.2,1.,1.2,0.,1.2
1979-07-17 09:02:52.040 ,2,0,12.,1.2,720.,1.2,0.,1.2,0.,1.2
1979-07-17 09:02:53.240 ,2,0,24.,1.2,688.,1.2,0.,1.2,0.,1.2
1979-07-17 09:02:54.440 ,2,0,21.,1.2,720.,1.2,0.,1.2,1.,1.2
1979-07-17 09:02:55.640 ,2,0,16.,1.2,720.,1.2,0.,1.2,0.,1.2
1979-07-17 09:02:56.840 ,2,0,17.,1.2,736.,1.2,0.,1.2,0.,1.2
1979-07-17 09:02:58.040 ,2,0,15.,1.2,720.,1.2,1.,1.2,0.,1.2
1979-07-17 09:02:59.240 ,2,0,24.,1.2,688.,1.2,0.,1.2,0.,1.2
1979-07-17 09:03:00.440 ,2,0,13.,1.2,736.,1.2,0.,1.2,0.,1.2
1979-07-17 09:03:01.640 ,2,0,20.,1.2,768.,1.2,0.,1.2,0.,1.2
1979-07-17 09:03:02.840 ,2,0,18.,1.2,704.,1.2,1.,1.2,0.,1.2
1979-07-17 09:03:04.040 ,2,0,16.,1.2,768.,1.2,1.,1.2,0.,1.2
1979-07-17 09:03:05.240 ,2,0,17.,1.2,720.,1.2,0.,1.2,0.,1.2
1979-07-17 09:03:06.440 ,2,0,14.,1.2,720.,1.2,0.,1.2,0.,1.2
1979-07-17 09:03:07.640 ,2,0,20.,1.2,704.,1.2,1.,1.2,0.,1.2
1979-07-17 09:03:08.840 ,2,0,14.,1.2,736.,1.2,1.,1.2,0.,1.2
1979-07-17 09:03:10.040 ,2,0,17.,1.2,704.,1.2,0.,1.2,1.,1.2
1979-07-17 09:03:11.240 ,3,0,21.,1.2,736.,1.2,0.,1.2,0.,1.2
1979-07-17 09:03:12.440 ,3,0,16.,1.2,688.,1.2,0.,1.2,0.,1.2
1979-07-17 09:03:13.640 ,3,0,20.,1.2,704.,1.2,0.,1.2,0.,1.2
1979-07-17 09:03:14.840 ,3,0,26.,1.2,688.,1.2,1.,1.2,1.,1.2
1979-07-17 09:03:16.040 ,3,0,17.,1.2,688.,1.2,2.,1.2,0.,1.2
1979-07-17 09:03:17.240 ,3,0,18.,1.2,1008.,1.2,1.,1.2,0.,1.2
1979-07-17 09:03:18.440 ,3,0,22.,1.2,200.,1.2,0.,1.2,0.,1.2
1979-07-17 09:03:19.640 ,3,0,19.,1.2,208.,1.2,1.,1.2,0.,1.2
1979-07-17 09:03:20.840 ,3,0,19.,1.2,192.,1.2,0.,1.2,0.,1.2
1979-07-17 09:03:22.040 ,3,0,9.,1.2,196.,1.2,1.,1.2,0.,1.2
1979-07-17 09:03:23.240 ,3,0,16.,1.2,208.,1.2,0.,1.2,0.,1.2
1979-07-17 09:03:24.440 ,3,0,24.,1.2,216.,1.2,2.,1.2,0.,1.2
1979-07-17 09:03:25.640 ,3,0,12.,1.2,196.,1.2,0.,1.2,0.,1.2
1979-07-17 09:03:26.840 ,3,0,21.,1.2,200.,1.2,1.,1.2,0.,1.2
1979-07-17 09:03:28.040 ,3,0,25.,1.2,208.,1.2,0.,1.2,0.,1.2
1979-07-17 09:03:29.240 ,3,0,18.,1.2,216.,1.2,0.,1.2,0.,1.2
1979-07-17 09:03:30.440 ,3,0,19.,1.2,172.,1.2,0.,1.2,1.,1.2
1979-07-17 09:03:31.640 ,3,0,19.,1.2,188.,1.2,1.,1.2,0.,1.2
1979-07-17 09:03:32.840 ,3,0,26.,1.2,180.,1.2,1.,1.2,0.,1.2
1979-07-17 09:03:34.040 ,3,0,21.,1.2,196.,1.2,1.,1.2,0.,1.2
1979-07-17 09:03:35.240 ,3,0,11.,1.2,216.,1.2,0.,1.2,0.,1.2
1979-07-17 09:03:36.440 ,3,0,26.,1.2,204.,1.2,0.,1.2,1.,1.2
1979-07-17 09:03:37.640 ,3,0,22.,1.2,192.,1.2,0.,1.2,0.,1.2
1979-07-17 09:03:38.840 ,3,0,22.,1.2,204.,1.2,1.,1.2,0.,1.2
1979-07-17 09:03:40.040 ,3,0,13.,1.2,212.,1.2,2.,1.2,0.,1.2
1979-07-17 09:03:41.240 ,3,0,22.,1.2,192.,1.2,0.,1.2,0.,1.2
1979-07-17 09:03:42.440 ,3,0,23.,1.2,196.,1.2,0.,1.2,0.,1.2
1979-07-17 09:03:43.640 ,3,0,14.,1.2,196.,1.2,0.,1.2,0.,1.2
1979-07-17 09:03:44.840 ,3,0,27.,1.2,172.,1.2,0.,1.2,0.,1.2
1979-07-17 09:03:46.040 ,3,0,15.,1.2,220.,1.2,0.,1.2,0.,1.2
1979-07-17 09:03:47.240 ,3,0,13.,1.2,180.,1.2,1.,1.2,0.,1.2
1979-07-17 09:03:48.440 ,3,0,18.,1.2,216.,1.2,0.,1.2,0.,1.2
1979-07-17 09:03:49.640 ,3,0,21.,1.2,184.,1.2,0.,1.2,0.,1.2
1979-07-17 09:03:50.840 ,3,0,24.,1.2,208.,1.2,1.,1.2,0.,1.2
1979-07-17 09:03:52.040 ,3,0,14.,1.2,208.,1.2,0.,1.2,0.,1.2
1979-07-17 09:03:53.240 ,3,0,14.,1.2,184.,1.2,0.,1.2,0.,1.2
1979-07-17 09:03:54.440 ,3,0,15.,1.2,200.,1.2,1.,1.2,0.,1.2
1979-07-17 09:03:55.640 ,3,0,11.,1.2,180.,1.2,1.,1.2,0.,1.2
1979-07-17 09:03:56.840 ,3,0,26.,1.2,196.,1.2,0.,1.2,0.,1.2
1979-07-17 09:03:58.040 ,3,0,26.,1.2,200.,1.2,1.,1.2,0.,1.2
1979-07-17 09:03:59.240 ,4,0,19.,1.2,196.,1.2,1.,1.2,0.,1.2
1979-07-17 09:04:00.440 ,4,0,21.,1.2,200.,1.2,0.,1.2,0.,1.2
1979-07-17 09:04:01.640 ,4,0,12.,1.2,176.,1.2,0.,1.2,1.,1.2
1979-07-17 09:04:02.840 ,4,0,20.,1.2,192.,1.2,1.,1.2,1.,1.2
1979-07-17 09:04:04.040 ,4,0,14.,1.2,188.,1.2,0.,1.2,0.,1.2
1979-07-17 09:04:05.240 ,4,0,17.,1.2,800.,1.2,1.,1.2,0.,1.2
1979-07-17 09:04:06.440 ,4,0,11.,1.2,736.,1.2,0.,1.2,0.,1.2
1979-07-17 09:04:07.640 ,4,0,16.,1.2,800.,1.2,0.,1.2,0.,1.2
1979-07-17 09:04:08.840 ,4,0,18.,1.2,736.,1.2,0.,1.2,0.,1.2
1979-07-17 09:04:10.040 ,4,0,12.,1.2,784.,1.2,0.,1.2,0.,1.2
1979-07-17 09:04:11.240 ,4,0,9.,1.2,736.,1.2,1.,1.2,0.,1.2
1979-07-17 09:04:12.440 ,4,0,21.,1.2,752.,1.2,0.,1.2,2.,1.2
1979-07-17 09:04:13.640 ,4,0,10.,1.2,736.,1.2,2.,1.2,0.,1.2
1979-07-17 09:04:14.840 ,4,0,7.,1.2,752.,1.2,0.,1.2,0.,1.2
1979-07-17 09:04:16.040 ,4,0,23.,1.2,816.,1.2,0.,1.2,0.,1.2
1979-07-17 09:04:17.240 ,4,0,13.,1.2,816.,1.2,0.,1.2,1.,1.2
1979-07-17 09:04:18.440 ,4,0,15.,1.2,816.,1.2,0.,1.2,0.,1.2
1979-07-17 09:04:19.640 ,4,0,19.,1.2,800.,1.2,1.,1.2,0.,1.2
1979-07-17 09:04:20.840 ,4,0,15.,1.2,784.,1.2,0.,1.2,1.,1.2
1979-07-17 09:04:22.040 ,4,0,15.,1.2,768.,1.2,2.,1.2,0.,1.2
1979-07-17 09:04:23.240 ,4,0,17.,1.2,832.,1.2,1.,1.2,0.,1.2
1979-07-17 09:04:24.440 ,4,0,5.,1.2,800.,1.2,0.,1.2,0.,1.2
1979-07-17 09:04:25.640 ,4,0,21.,1.2,816.,1.2,0.,1.2,0.,1.2
1979-07-17 09:04:26.840 ,4,0,17.,1.2,784.,1.2,0.,1.2,0.,1.2
1979-07-17 09:04:28.040 ,4,0,18.,1.2,832.,1.2,0.,1.2,0.,1.2
1979-07-17 09:04:29.240 ,4,0,14.,1.2,800.,1.2,0.,1.2,0.,1.2
1979-07-17 09:04:30.440 ,4,0,16.,1.2,800.,1.2,0.,1.2,1.,1.2
1979-07-17 09:04:31.640 ,4,0,22.,1.2,768.,1.2,0.,1.2,0.,1.2
1979-07-17 09:04:32.840 ,4,0,11.,1.2,816.,1.2,0.,1.2,1.,1.2
1979-07-17 09:04:34.040 ,4,0,17.,1.2,768.,1.2,0.,1.2,0.,1.2
1979-07-17 09:04:35.240 ,4,0,21.,1.2,800.,1.2,0.,1.2,0.,1.2
1979-07-17 09:04:36.440 ,4,0,13.,1.2,800.,1.2,1.,1.2,0.,1.2
1979-07-17 09:04:37.640 ,4,0,9.,1.2,816.,1.2,1.,1.2,0.,1.2
1979-07-17 09:04:38.840 ,4,0,16.,1.2,736.,1.2,1.,1.2,0.,1.2
1979-07-17 09:04:40.040 ,4,0,21.,1.2,816.,1.2,0.,1.2,0.,1.2
1979-07-17 09:04:41.240 ,4,0,16.,1.2,768.,1.2,2.,1.2,0.,1.2
1979-07-17 09:04:42.440 ,4,0,13.,1.2,752.,1.2,0.,1.2,0.,1.2
1979-07-17 09:04:43.640 ,4,0,16.,1.2,752.,1.2,1.,1.2,0.,1.2
1979-07-17 09:04:44.840 ,4,0,12.,1.2,752.,1.2,1.,1.2,0.,1.2
1979-07-17 09:04:46.040 ,4,0,18.,1.2,800.,1.2,0.,1.2,0.,1.2
1979-07-17 09:04:47.240 ,5,0,21.,1.2,736.,1.2,0.,1.2,0.,1.2
1979-07-17 09:04:48.440 ,5,0,21.,1.2,784.,1.2,0.,1.2,0.,1.2
1979-07-17 09:04:49.640 ,5,0,15.,1.2,800.,1.2,1.,1.2,0.,1.2
1979-07-17 09:04:50.840 ,5,0,20.,1.2,816.,1.2,0.,1.2,0.,1.2
1979-07-17 09:04:52.040 ,5,0,16.,1.2,768.,1.2,0.,1.2,0.,1.2
1979-07-17 09:04:53.240 ,5,0,12.,1.2,1120.,1.2,0.,1.2,0.,1.2
1979-07-17 09:04:54.440 ,5,0,10.,1.2,976.,1.2,1.,1.2,0.,1.2
1979-07-17 09:04:55.640 ,5,0,5.,1.2,880.,1.2,0.,1.2,0.,1.2
1979-07-17 09:04:56.840 ,5,0,15.,1.2,816.,1.2,0.,1.2,0.,1.2
1979-07-17 09:04:58.040 ,5,0,5.,1.2,864.,1.2,0.,1.2,1.,1.2
1979-07-17 09:04:59.240 ,5,0,7.,1.2,928.,1.2,0.,1.2,0.,1.2
1979-07-17 09:05:00.440 ,5,0,9.,1.2,928.,1.2,0.,1.2,0.,1.2
1979-07-17 09:05:01.640 ,5,0,7.,1.2,848.,1.2,0.,1.2,0.,1.2
1979-07-17 09:05:02.840 ,5,0,13.,1.2,832.,1.2,0.,1.2,0.,1.2
1979-07-17 09:05:04.040 ,5,0,8.,1.2,832.,1.2,1.,1.2,0.,1.2
1979-07-17 09:05:05.240 ,5,0,13.,1.2,800.,1.2,0.,1.2,0.,1.2
1979-07-17 09:05:06.440 ,5,0,16.,1.2,848.,1.2,1.,1.2,0.,1.2
1979-07-17 09:05:07.640 ,5,0,12.,1.2,896.,1.2,1.,1.2,0.,1.2
1979-07-17 09:05:08.840 ,5,0,12.,1.2,864.,1.2,0.,1.2,0.,1.2
1979-07-17 09:05:10.040 ,5,0,12.,1.2,848.,1.2,1.,1.2,0.,1.2
1979-07-17 09:05:11.240 ,5,0,7.,1.2,800.,1.2,1.,1.2,0.,1.2
1979-07-17 09:05:12.440 ,5,0,13.,1.2,912.,1.2,0.,1.2,0.,1.2
1979-07-17 09:05:13.640 ,5,0,14.,1.2,864.,1.2,0.,1.2,0.,1.2
1979-07-17 09:05:14.840 ,5,0,11.,1.2,912.,1.2,0.,1.2,0.,1.2
1979-07-17 09:05:16.040 ,5,0,6.,1.2,848.,1.2,1.,1.2,0.,1.2
1979-07-17 09:05:17.240 ,5,0,11.,1.2,864.,1.2,0.,1.2,0.,1.2
1979-07-17 09:05:18.440 ,5,0,13.,1.2,880.,1.2,2.,1.2,0.,1.2
1979-07-17 09:05:19.640 ,5,0,9.,1.2,880.,1.2,0.,1.2,0.,1.2
1979-07-17 09:05:20.840 ,5,0,7.,1.2,864.,1.2,0.,1.2,0.,1.2
1979-07-17 09:05:22.040 ,5,0,14.,1.2,784.,1.2,0.,1.2,0.,1.2
1979-07-17 09:05:23.240 ,5,0,9.,1.2,832.,1.2,0.,1.2,0.,1.2
1979-07-17 09:05:24.440 ,5,0,14.,1.2,832.,1.2,0.,1.2,0.,1.2
1979-07-17 09:05:25.640 ,5,0,8.,1.2,880.,1.2,2.,1.2,0.,1.2
1979-07-17 09:05:26.840 ,5,0,12.,1.2,832.,1.2,0.,1.2,0.,1.2
1979-07-17 09:05:28.040 ,5,0,12.,1.2,832.,1.2,0.,1.2,0.,1.2
1979-07-17 09:05:29.240 ,5,0,7.,1.2,832.,1.2,1.,1.2,0.,1.2
1979-07-17 09:05:30.440 ,5,0,4.,1.2,864.,1.2,0.,1.2,0.,1.2
1979-07-17 09:05:31.640 ,5,0,8.,1.2,848.,1.2,0.,1.2,0.,1.2
1979-07-17 09:05:32.840 ,5,0,10.,1.2,832.,1.2,1.,1.2,0.,1.2
1979-07-17 09:05:34.040 ,5,0,12.,1.2,832.,1.2,0.,1.2,0.,1.2
1979-07-17 09:05:35.240 ,6,0,10.,1.2,784.,1.2,1.,1.2,0.,1.2
1979-07-17 09:05:36.440 ,6,0,12.,1.2,800.,1.2,0.,1.2,1.,1.2
1979-07-17 09:05:37.640 ,6,0,5.,1.2,816.,1.2,0.,1.2,0.,1.2
1979-07-17 09:05:38.840 ,6,0,9.,1.2,864.,1.2,1.,1.2,1.,1.2
1979-07-17 09:05:40.040 ,6,0,9.,1.2,816.,1.2,0.,1.2,0.,1.2
1979-07-17 09:05:41.240 ,6,0,3.,1.2,1184.,1.2,0.,1.2,0.,1.2
1979-07-17 09:05:42.440 ,6,0,8.,1.2,896.,1.2,0.,1.2,0.,1.2
1979-07-17 09:05:43.640 ,6,0,7.,1.2,880.,1.2,0.,1.2,0.,1.2
1979-07-17 09:05:44.840 ,6,0,11.,1.2,896.,1.2,1.,1.2,0.,1.2
1979-07-17 09:05:46.040 ,6,0,7.,1.2,816.,1.2,0.,1.2,0.,1.2
1979-07-17 09:05:47.240 ,6,0,6.,1.2,896.,1.2,0.,1.2,0.,1.2
1979-07-17 09:05:48.440 ,6,0,5.,1.2,912.,1.2,0.,1.2,0.,1.2
1979-07-17 09:05:49.640 ,6,0,9.,1.2,848.,1.2,0.,1.2,0.,1.2
1979-07-17 09:05:50.840 ,6,0,10.,1.2,880.,1.2,0.,1.2,0.,1.2
1979-07-17 09:05:52.040 ,6,0,9.,1.2,880.,1.2,0.,1.2,0.,1.2
1979-07-17 09:05:53.240 ,6,0,6.,1.2,880.,1.2,0.,1.2,0.,1.2
1979-07-17 09:05:54.440 ,6,0,4.,1.2,864.,1.2,0.,1.2,0.,1.2
1979-07-17 09:05:55.640 ,6,0,9.,1.2,896.,1.2,0.,1.2,0.,1.2
1979-07-17 09:05:56.840 ,6,0,4.,1.2,848.,1.2,0.,1.2,0.,1.2
1979-07-17 09:05:58.040 ,6,0,5.,1.2,896.,1.2,0.,1.2,0.,1.2
1979-07-17 09:05:59.240 ,6,0,6.,1.2,832.,1.2,0.,1.2,0.,1.2
1979-07-17 09:06:00.440 ,6,0,,0,,0,,0,,0
1979-07-17 09:06:01.640 ,6,0,5.,1.2,880.,1.2,0.,1.2,0.,1.2
1979-07-17 09:06:02.840 ,6,0,6.,1.2,896.,1.2,1.,1.2,0.,1.2
1979-07-17 09:06:04.040 ,6,0,7.,1.2,848.,1.2,0.,1.2,0.,1.2
1979-07-17 09:06:05.240 ,6,0,10.,1.2,848.,1.2,0.,1.2,0.,1.2
1979-07-17 09:06:06.440 ,6,0,6.,1.2,864.,1.2,0.,1.2,0.,1.2
1979-07-17 09:06:07.640 ,6,0,14.,1.2,848.,1.2,0.,1.2,0.,1.2
1979-07-17 09:06:08.840 ,6,0,7.,1.2,864.,1.2,0.,1.2,0.,1.2
1979-07-17 09:06:10.040 ,6,0,6.,1.2,864.,1.2,1.,1.2,0.,1.2
1979-07-17 09:06:11.240 ,6,0,10.,1.2,832.,1.2,0.,1.2,0.,1.2
1979-07-17 09:06:12.440 ,6,0,7.,1.2,800.,1.2,1.,1.2,0.,1.2
1979-07-17 09:06:13.640 ,6,0,6.,1.2,880.,1.2,0.,1.2,0.,1.2
1979-07-17 09:06:14.840 ,6,0,8.,1.2,848.,1.2,1.,1.2,0.,1.2
1979-07-17 09:06:16.040 ,6,0,6.,1.2,880.,1.2,0.,1.2,0.,1.2
1979-07-17 09:06:17.240 ,6,0,4.,1.2,880.,1.2,0.,1.2,0.,1.2
1979-07-17 09:06:18.440 ,6,0,6.,1.2,864.,1.2,1.,1.2,0.,1.2
1979-07-17 09:06:19.640 ,6,0,8.,1.2,896.,1.2,0.,1.2,0.,1.2
1979-07-17 09:06:20.840 ,6,0,7.,1.2,848.,1.2,2.,1.2,0.,1.2
1979-07-17 09:06:22.040 ,6,0,4.,1.2,832.,1.2,0.,1.2,0.,1.2
1979-07-17 09:06:23.240 ,7,0,8.,1.2,896.,1.2,1.,1.2,0.,1.2
1979-07-17 09:06:24.440 ,7,0,7.,1.2,880.,1.2,0.,1.2,0.,1.2
1979-07-17 09:06:25.640 ,7,0,6.,1.2,816.,1.2,0.,1.2,0.,1.2
1979-07-17 09:06:26.840 ,7,0,7.,1.2,848.,1.2,0.,1.2,0.,1.2
1979-07-17 09:06:28.040 ,7,0,3.,1.2,864.,1.2,0.,1.2,0.,1.2
1979-07-17 09:06:29.240 ,7,0,4.,1.2,1216.,1.2,4.,1.2,0.,1.2
1979-07-17 09:06:30.440 ,7,0,0.,1.2,944.,1.2,6.,1.2,0.,1.2
1979-07-17 09:06:31.640 ,7,0,0.,1.2,976.,1.2,7.,1.2,0.,1.2
1979-07-17 09:06:32.840 ,7,0,0.,1.2,864.,1.2,5.,1.2,0.,1.2
1979-07-17 09:06:34.040 ,7,0,0.,1.2,864.,1.2,6.,1.2,0.,1.2
1979-07-17 09:06:35.240 ,7,0,0.,1.2,880.,1.2,9.,1.2,0.,1.2
1979-07-17 09:06:36.440 ,7,0,0.,1.2,848.,1.2,4.,1.2,0.,1.2
1979-07-17 09:06:37.640 ,7,0,0.,1.2,912.,1.2,4.,1.2,0.,1.2
1979-07-17 09:06:38.840 ,7,0,0.,1.2,912.,1.2,5.,1.2,0.,1.2
1979-07-17 09:06:40.040 ,7,0,0.,1.2,896.,1.2,7.,1.2,0.,1.2
1979-07-17 09:06:41.240 ,7,0,0.,1.2,896.,1.2,6.,1.2,0.,1.2
1979-07-17 09:06:42.440 ,7,0,0.,1.2,944.,1.2,7.,1.2,0.,1.2
1979-07-17 09:06:43.640 ,7,0,0.,1.2,944.,1.2,3.,1.2,0.,1.2
1979-07-17 09:06:44.840 ,7,0,0.,1.2,880.,1.2,3.,1.2,0.,1.2
1979-07-17 09:06:46.040 ,7,0,0.,1.2,896.,1.2,4.,1.2,0.,1.2
1979-07-17 09:06:47.240 ,7,0,0.,1.2,864.,1.2,2.,1.2,0.,1.2
1979-07-17 09:06:48.440 ,7,0,0.,1.2,928.,1.2,5.,1.2,0.,1.2
1979-07-17 09:06:49.640 ,7,0,0.,1.2,880.,1.2,5.,1.2,0.,1.2
1979-07-17 09:06:50.840 ,7,0,0.,1.2,848.,1.2,6.,1.2,0.,1.2
1979-07-17 09:06:52.040 ,7,0,0.,1.2,912.,1.2,7.,1.2,0.,1.2
1979-07-17 09:06:53.240 ,7,0,0.,1.2,880.,1.2,5.,1.2,0.,1.2
1979-07-17 09:06:54.440 ,7,0,2.,1.2,864.,1.2,6.,1.2,0.,1.2
1979-07-17 09:06:55.640 ,7,0,0.,1.2,864.,1.2,3.,1.2,0.,1.2
1979-07-17 09:06:56.840 ,7,0,0.,1.2,864.,1.2,5.,1.2,0.,1.2
1979-07-17 09:06:58.040 ,7,0,0.,1.2,896.,1.2,4.,1.2,0.,1.2
1979-07-17 09:06:59.240 ,7,0,0.,1.2,848.,1.2,4.,1.2,0.,1.2
1979-07-17 09:07:00.440 ,7,0,0.,1.2,832.,1.2,5.,1.2,0.,1.2
1979-07-17 09:07:01.640 ,7,0,0.,1.2,784.,1.2,12.,1.2,0.,1.2
1979-07-17 09:07:02.840 ,7,0,0.,1.2,736.,1.2,8.,1.2,0.,1.2
1979-07-17 09:07:04.040 ,7,0,0.,1.2,704.,1.2,3.,1.2,0.,1.2
1979-07-17 09:07:05.240 ,7,0,0.,1.2,672.,1.2,5.,1.2,0.,1.2
1979-07-17 09:07:06.440 ,7,0,0.,1.2,656.,1.2,4.,1.2,0.,1.2
1979-07-17 09:07:07.640 ,7,0,0.,1.2,640.,1.2,6.,1.2,0.,1.2
1979-07-17 09:07:08.840 ,7,0,0.,1.2,592.,1.2,6.,1.2,0.,1.2
1979-07-17 09:07:10.040 ,7,0,0.,1.2,704.,1.2,8.,1.2,0.,1.2
1979-07-17 09:07:11.240 ,3,0,1.,1.2,992.,1.2,8.,1.2,0.,1.2
1979-07-17 09:07:12.440 ,3,0,5.,1.2,624.,1.2,0.,1.2,0.,1.2
1979-07-17 09:07:13.640 ,3,0,11.,1.2,672.,1.2,0.,1.2,0.,1.2
1979-07-17 09:07:14.840 ,3,0,11.,1.2,656.,1.2,0.,1.2,0.,1.2
1979-07-17 09:07:16.040 ,3,0,8.,1.2,656.,1.2,0.,1.2,0.,1.2
1979-07-17 09:07:17.240 ,3,0,5.,1.2,976.,1.2,0.,1.2,0.,1.2
1979-07-17 09:07:18.440 ,3,0,7.,1.2,688.,1.2,0.,1.2,0.,1.2
1979-07-17 09:07:19.640 ,3,0,10.,1.2,704.,1.2,1.,1.2,0.,1.2
1979-07-17 09:07:20.840 ,3,0,16.,1.2,656.,1.2,2.,1.2,0.,1.2
1979-07-17 09:07:22.040 ,3,0,8.,1.2,672.,1.2,1.,1.2,0.,1.2
1979-07-17 09:07:23.240 ,3,0,12.,1.2,1024.,1.2,1.,1.2,0.,1.2
1979-07-17 09:07:24.440 ,3,0,12.,1.2,736.,1.2,0.,1.2,0.,1.2
1979-07-17 09:07:25.640 ,3,0,13.,1.2,672.,1.2,0.,1.2,0.,1.2
1979-07-17 09:07:26.840 ,3,0,15.,1.2,704.,1.2,0.,1.2,0.,1.2
1979-07-17 09:07:28.040 ,3,0,9.,1.2,784.,1.2,0.,1.2,0.,1.2
1979-07-17 09:07:29.240 ,3,0,15.,1.2,928.,1.2,0.,1.2,0.,1.2
1979-07-17 09:07:30.440 ,3,0,18.,1.2,156.,1.2,1.,1.2,0.,1.2
1979-07-17 09:07:31.640 ,3,0,26.,1.2,156.,1.2,1.,1.2,0.,1.2
1979-07-17 09:07:32.840 ,3,0,,0,,0,,0,,0
1979-07-17 09:07:34.040 ,3,0,15.,1.2,172.,1.2,0.,1.2,0.,1.2
1979-07-17 09:07:35.240 ,0,0,18.,1.2,768.,1.2,0.,1.2,0.,1.2
1979-07-17 09:07:36.440 ,0,0,15.,1.2,624.,1.2,0.,1.2,0.,1.2
1979-07-17 09:07:37.640 ,0,0,16.,1.2,624.,1.2,0.,1.2,0.,1.2
1979-07-17 09:07:38.840 ,0,0,12.,1.2,624.,1.2,0.,1.2,0.,1.2
1979-07-17 09:07:40.040 ,0,0,17.,1.2,656.,1.2,1.,1.2,1.,1.2
1979-07-17 09:07:41.240 ,0,0,13.,1.2,848.,1.2,1.,1.2,0.,1.2
1979-07-17 09:07:42.440 ,0,0,16.,1.2,560.,1.2,0.,1.2,0.,1.2
1979-07-17 09:07:43.640 ,0,0,7.,1.2,640.,1.2,0.,1.2,0.,1.2
1979-07-17 09:07:44.840 ,0,0,9.,1.2,560.,1.2,0.,1.2,0.,1.2
1979-07-17 09:07:46.040 ,0,0,14.,1.2,592.,1.2,0.,1.2,0.,1.2
1979-07-17 09:07:47.240 ,0,0,11.,1.2,912.,1.2,1.,1.2,0.,1.2
1979-07-17 09:07:48.440 ,0,0,6.,1.2,624.,1.2,0.,1.2,0.,1.2
1979-07-17 09:07:49.640 ,0,0,3.,1.2,640.,1.2,0.,1.2,0.,1.2
1979-07-17 09:07:50.840 ,0,0,7.,1.2,576.,1.2,0.,1.2,0.,1.2
1979-07-17 09:07:52.040 ,0,0,8.,1.2,592.,1.2,1.,1.2,0.,1.2
1979-07-17 09:07:53.240 ,0,0,8.,1.2,576.,1.2,0.,1.2,0.,1.2
1979-07-17 09:07:54.440 ,0,0,11.,1.2,576.,1.2,1.,1.2,0.,1.2
1979-07-17 09:07:55.640 ,0,0,10.,1.2,560.,1.2,0.,1.2,0.,1.2
1979-07-17 09:07:56.840 ,0,0,8.,1.2,640.,1.2,0.,1.2,0.,1.2
1979-07-17 09:07:58.040 ,0,0,9.,1.2,608.,1.2,0.,1.2,0.,1.2
1979-07-17 09:07:59.240 ,4,0,8.,1.2,912.,1.2,1.,1.2,0.,1.2
1979-07-17 09:08:00.440 ,4,0,10.,1.2,560.,1.2,0.,1.2,0.,1.2
1979-07-17 09:08:01.640 ,4,0,9.,1.2,576.,1.2,0.,1.2,0.,1.2
1979-07-17 09:08:02.840 ,4,0,9.,1.2,592.,1.2,0.,1.2,0.,1.2
1979-07-17 09:08:04.040 ,4,0,7.,1.2,608.,1.2,2.,1.2,1.,1.2
1979-07-17 09:08:05.240 ,4,0,11.,1.2,928.,1.2,0.,1.2,1.,1.2
1979-07-17 09:08:06.440 ,4,0,20.,1.2,592.,1.2,1.,1.2,0.,1.2
1979-07-17 09:08:07.640 ,4,0,25.,1.2,528.,1.2,0.,1.2,0.,1.2
1979-07-17 09:08:08.840 ,4,0,15.,1.2,544.,1.2,0.,1.2,0.,1.2
1979-07-17 09:08:10.040 ,4,0,21.,1.2,576.,1.2,1.,1.2,0.,1.2
1979-07-17 09:08:11.240 ,4,0,18.,1.2,720.,1.2,1.,1.2,0.,1.2
1979-07-17 09:08:12.440 ,4,0,11.,1.2,164.,1.2,0.,1.2,0.,1.2
1979-07-17 09:08:13.640 ,4,0,12.,1.2,172.,1.2,0.,1.2,0.,1.2
1979-07-17 09:08:14.840 ,4,0,16.,1.2,148.,1.2,1.,1.2,0.,1.2
1979-07-17 09:08:16.040 ,4,0,9.,1.2,160.,1.2,1.,1.2,0.,1.2